Home   Weather   Los Angeles   Past weeks

Flag for USA Past Weather in Los Angeles, California, USA — Yesterday and Last 2 Weeks

Now
76 °F

Sunny.


Feels Like: 77 °F
Forecast: 68 / 96 °F
Wind: 5 mph from Northeast

Location: Los Angeles / USC Campus Downtown

Current Time: Sep 26, 2016 at 8:43:13 AM

Latest Report: Sep 26, 2016 at 7:47 AM


Visibility: 10 mi

Pressure: 29.93 "Hg

Humidity: 23%

Dew Point: 35 °F

Location of Los AngelesLocation

Past Weather in Los Angeles — Graph

°F

Los Angeles Temperature Yesterday

Maximum temperature yesterday: 96 °F (at 12:47 PM)
Minimum temperature yesterday: 63 °F (at 5:47 AM)
Average temperature yesterday: 78 °F

High & Low Weather Summary for the Past Weeks

 TemperatureHumidityPressure
High96 °F (Sep 25, 12:47 PM)100% (Sep 19, 6:00 AM)30.07 "Hg (Sep 19, 6:00 AM)
Low58 °F (Sep 14, 4:47 AM)12% (Sep 25, 12:47 PM)29.81 "Hg (Sep 21, 4:47 PM)
Average71 °F65%29.93 "Hg
* Reported Sep 11 6:47 AM — Sep 26 6:47 AM, Los Angeles, Weather by CustomWeather, © 2016

Note: Actual official high and low records may vary slightly from our data, if they occured in-between our weather recording intervals... More about our weather records

Advertising

Los Angeles Weather History for the Previous 24 Hours

Scroll right to see more
 ConditionsComfort  
Time TempWeatherWind HumidityBarometerVisibility
6:47 AM
Mon, Sep 26
73 °FSunny.3 mph24%29.92 "Hg10 mi
5:47 AM73 °FClear.5 mph23%29.91 "Hg9 mi
4:47 AM73 °FClear.3 mph25%29.90 "Hg10 mi
3:47 AM71 °FClear.3 mph32%29.90 "Hg10 mi
2:47 AM71 °FClear.No wind36%29.91 "Hg10 mi
1:47 AM72 °FClear.No wind38%29.92 "Hg10 mi
12:47 AM71 °FClear.No wind45%29.92 "Hg10 mi
11:47 PM
Sun, Sep 25
72 °FClear.No wind52%29.92 "Hg10 mi
10:47 PM77 °FClear.No wind35%29.92 "Hg10 mi
9:47 PM76 °FClear.No wind47%29.92 "Hg10 mi
8:47 PM77 °FClear.No wind45%29.90 "Hg10 mi
7:47 PM79 °FClear.No wind38%29.88 "Hg10 mi
6:47 PM85 °FClear.No wind19%29.86 "Hg10 mi
5:47 PM88 °FSunny.7 mph16%29.86 "Hg10 mi
4:47 PM90 °FSunny.3 mph16%29.87 "Hg10 mi
3:47 PM90 °FSunny.5 mph17%29.89 "Hg10 mi
2:47 PM91 °FSunny.3 mph17%29.90 "Hg10 mi
1:47 PM92 °FSunny.5 mph17%29.92 "Hg10 mi
12:47 PM96 °FSunny.3 mph12%29.93 "Hg10 mi
11:47 AM94 °FSunny.No wind13%29.96 "Hg10 mi
10:47 AM91 °FSunny.No wind14%29.98 "Hg10 mi
9:47 AM86 °FSunny.No wind20%29.99 "Hg10 mi
8:47 AM75 °FSunny.No wind37%30.00 "Hg10 mi
Weather by CustomWeather, © 2016

See weather overviewHow to use our weather pages